Regional Weather Roundup
Issued by NWS

Home | Current Version | Previous Version | Graphics & Text | Print | Product List | Glossary On
Versions: 1 2 3 4 5 6 7 8 9 10 11 12 13 14 15 16 17 18 19 20 21 22 23 24 25 26 27 28 29 30 31 32 33 34 35 36 37 38 39 40 41 42 43 44 45 46 47 48 49 50
000
ASUS43 KLSX 241757
RWRMO

WEATHER SUMMARY FOR MISSOURI
NATIONAL WEATHER SERVICE SPRINGFIELD MO
100 PM CDT TUE MAY 24 2016

NOTE: "FAIR" INDICATES FEW OR NO CLOUDS BELOW 12,000 FEET WITH NO
       SIGNIFICANT WEATHER AND/OR OBSTRUCTIONS TO VISIBILITY.
       CURRENT SKY AND/OR WEATHER CONDITIONS ARE NOT AVAILABLE FOR
       CHILLICOTHE AND FARMINGTON.

MOZ001>031-035>038-043-044-053-054-241900-
...NORTHERN AND WESTERN MISSOURI...

CITY           SKY/WX    TMP DP  RH WIND       PRES   REMARKS
KANSAS CTY INT CLOUDY    73  63  70 SE12      29.93S
6HR MIN TEMP:  62; 6HR MAX TEMP:  74; 6HR PCP:  0.06;

LEE`S SUMMIT   CLOUDY    70  65  84 SE10      29.99R
6HR MIN TEMP:  63; 6HR MAX TEMP:  70; 6HR PCP:  0.04;

ST JOSEPH      PTSUNNY   73  61  65 SE9       29.85F
6HR MIN TEMP:  63; 6HR MAX TEMP:  73; 6HR PCP:  0.08;

CHILLICOTHE      N/A     76  63  64 CALM      29.95F
6HR MIN TEMP:  64; 6HR MAX TEMP:  77;


$$
MOZ066>068-077>081-088>096-101>105-241900-
...SOUTHWEST MISSOURI...

CITY           SKY/WX    TMP DP  RH WIND       PRES   REMARKS
SPRINGFIELD    TSTM      64  61  90 N14       30.04F
6HR MIN TEMP:  64; 6HR MAX TEMP:  76; 6HR PCP: TRACE;

JOPLIN         CLOUDY    66  65  96 N8        30.01S
6HR MIN TEMP:  65; 6HR MAX TEMP:  79; 6HR PCP:  0.45;

BRANSON        CLOUDY    82  66  57 CALM      29.99F

$$
MOZ032>034-039>042-045>050-055>058-069>072-241900-
...CENTRAL MISSOURI...

CITY           SKY/WX    TMP DP  RH WIND       PRES   REMARKS
COLUMBIA       NOT AVBL
JEFFERSON CITY CLOUDY    68  66  93 S6        30.01S
6HR MIN TEMP:  63; 6HR MAX TEMP:  73; 6HR PCP:  0.20;

ROLLA          TSTM      66  65  96 NW5       30.03R FOG
6HR MIN TEMP:  66; 6HR MAX TEMP:  72; 6HR PCP:  0.30;

SEDALIA        CLOUDY    70  66  87 S9        30.03R
6HR MIN TEMP:  67; 6HR MAX TEMP:  72; 6HR PCP:  0.11;

WARRENSBURG    CLOUDY    68  64  88 SE8       29.99R

$$
MOZ051-052-059>065-241900-
...EAST CENTRAL MISSOURI...

CITY           SKY/WX    TMP DP  RH WIND       PRES   REMARKS
ST LOUIS INTL  PTSUNNY   83  61  47 VRB7      29.99F
6HR MIN TEMP:  71; 6HR MAX TEMP:  83; 6HR PCP: TRACE;


$$
MOZ072>076-082>087-097>100-106>115-241900-
...SOUTH CENTRAL AND SOUTHEAST MISSOURI...

CITY           SKY/WX    TMP DP  RH WIND       PRES   REMARKS
CAPE GIRARDEAU MOSUNNY   81  62  52 S12       30.03F
6HR MIN TEMP:  66; 6HR MAX TEMP:  82;

POPLAR BLUFF   CLOUDY    76  64  66 SW8       30.02F
6HR MIN TEMP:  64; 6HR MAX TEMP:  76; 6HR PCP:  0.03;

WEST PLAINS    CLOUDY    70  65  84 S9        30.05R
6HR MIN TEMP:  63; 6HR MAX TEMP:  72; 6HR PCP:  0.04;


$$


USA.gov is the U.S. government's official web portal to all federal, state and local government web resources and services.